TimeEST,TemperatureF,Dew PointF,Humidity,Sea Level PressureIn,VisibilityMPH,Wind Direction,Wind SpeedMPH,Gust SpeedMPH,PrecipitationIn,Events,Conditions,WindDirDegrees,DateUTC
12:15 AM,48.2,46.4,93,30.28,7.0,Calm,Calm,-,N/A,,Mostly Cloudy,0,2012-12-04 05:15:00
12:35 AM,48.2,46.4,93,30.28,7.0,Calm,Calm,-,N/A,,Scattered Clouds,0,2012-12-04 05:35:00
1:15 AM,48.2,46.4,93,30.27,7.0,Calm,Calm,-,N/A,,Mostly Cloudy,0,2012-12-04 06:15:00
1:35 AM,48.2,46.4,93,30.27,7.0,Calm,Calm,-,N/A,,Mostly Cloudy,0,2012-12-04 06:35:00
1:55 AM,48.2,46.4,93,30.28,7.0,Calm,Calm,-,N/A,,Clear,0,2012-12-04 06:55:00
2:15 AM,46.4,46.4,100,30.28,4.0,Calm,Calm,-,N/A,,Clear,0,2012-12-04 07:15:00
2:35 AM,46.4,44.6,93,30.28,4.0,Calm,Calm,-,N/A,,Clear,0,2012-12-04 07:35:00
2:55 AM,46.4,46.4,100,30.28,5.0,Calm,Calm,-,N/A,,Clear,0,2012-12-04 07:55:00
3:15 AM,46.4,46.4,100,30.27,5.0,Calm,Calm,-,N/A,,Clear,0,2012-12-04 08:15:00
3:55 AM,46.4,46.4,100,30.27,5.0,Calm,Calm,-,N/A,,Clear,0,2012-12-04 08:55:00
4:15 AM,46.4,46.4,100,30.27,4.0,Calm,Calm,-,N/A,,Clear,0,2012-12-04 09:15:00
4:35 AM,46.4,46.4,100,30.27,7.0,Calm,Calm,-,N/A,,Clear,0,2012-12-04 09:35:00
4:55 AM,46.4,44.6,93,30.27,4.0,Calm,Calm,-,N/A,,Clear,0,2012-12-04 09:55:00
5:15 AM,46.4,44.6,93,30.27,5.0,Calm,Calm,-,N/A,,Clear,0,2012-12-04 10:15:00
5:35 AM,44.6,44.6,100,30.27,2.5,Calm,Calm,-,N/A,,Mostly Cloudy,0,2012-12-04 10:35:00
5:55 AM,44.6,44.6,100,30.28,5.0,Calm,Calm,-,N/A,,Scattered Clouds,0,2012-12-04 10:55:00
6:15 AM,44.6,44.6,100,30.29,5.0,Calm,Calm,-,N/A,,Clear,0,2012-12-04 11:15:00
6:35 AM,44.6,44.6,100,30.29,0.5,Calm,Calm,-,N/A,Fog,Fog,0,2012-12-04 11:35:00
6:55 AM,44.6,44.6,100,30.30,3.0,Calm,Calm,-,N/A,,Scattered Clouds,0,2012-12-04 11:55:00
7:15 AM,44.6,44.6,100,30.30,1.5,Calm,Calm,-,N/A,,Mist,0,2012-12-04 12:15:00
7:35 AM,46.4,46.4,100,30.30,0.2,Calm,Calm,-,N/A,Fog,Fog,0,2012-12-04 12:35:00
7:55 AM,48.2,48.2,100,30.30,2.0,South,3.5,-,N/A,,Mostly Cloudy,190,2012-12-04 12:55:00
8:15 AM,51.8,51.8,100,30.30,3.0,Calm,Calm,-,N/A,,Clear,0,2012-12-04 13:15:00
8:35 AM,55.4,53.6,94,30.31,7.0,Calm,Calm,-,N/A,,Clear,0,2012-12-04 13:35:00
8:55 AM,57.2,53.6,88,30.31,10.0,Calm,Calm,-,N/A,,Clear,0,2012-12-04 13:55:00
9:15 AM,60.8,55.4,82,30.32,10.0,SW,5.8,-,N/A,,Clear,220,2012-12-04 14:15:00
9:35 AM,60.8,55.4,82,30.32,10.0,SSW,5.8,-,N/A,,Clear,200,2012-12-04 14:35:00
9:55 AM,62.6,55.4,77,30.32,10.0,Calm,Calm,-,N/A,,Clear,0,2012-12-04 14:55:00
10:15 AM,66.2,55.4,68,30.31,10.0,WSW,3.5,-,N/A,,Clear,240,2012-12-04 15:15:00
10:35 AM,68.0,55.4,64,30.31,10.0,SSW,4.6,-,N/A,,Clear,200,2012-12-04 15:35:00
10:55 AM,69.8,55.4,60,30.30,10.0,SW,6.9,-,N/A,,Clear,220,2012-12-04 15:55:00
11:15 AM,71.6,53.6,53,30.29,10.0,SW,5.8,-,N/A,,Clear,230,2012-12-04 16:15:00
11:35 AM,71.6,53.6,53,30.28,10.0,SW,6.9,-,N/A,,Clear,220,2012-12-04 16:35:00
11:55 AM,73.4,53.6,50,30.26,7.0,SW,8.1,-,N/A,,Clear,220,2012-12-04 16:55:00
12:15 PM,73.4,53.6,50,30.25,7.0,WSW,10.4,17.3,N/A,,Clear,240,2012-12-04 17:15:00
12:35 PM,73.4,53.6,50,30.25,10.0,SW,10.4,-,N/A,,Clear,230,2012-12-04 17:35:00
12:55 PM,73.4,53.6,50,30.23,7.0,SSW,11.5,-,N/A,,Scattered Clouds,210,2012-12-04 17:55:00
1:15 PM,73.4,51.8,47,30.22,7.0,WSW,12.7,17.3,N/A,,Scattered Clouds,240,2012-12-04 18:15:00
1:35 PM,73.4,51.8,47,30.21,7.0,SW,11.5,20.7,N/A,,Scattered Clouds,230,2012-12-04 18:35:00
1:55 PM,73.4,51.8,47,30.20,5.0,SW,8.1,-,N/A,,Haze,230,2012-12-04 18:55:00
2:15 PM,73.4,51.8,47,30.20,7.0,SSW,12.7,16.1,N/A,,Scattered Clouds,200,2012-12-04 19:15:00
2:35 PM,73.4,51.8,47,30.19,7.0,SSW,10.4,17.3,N/A,,Scattered Clouds,210,2012-12-04 19:35:00
2:55 PM,73.4,51.8,47,30.19,7.0,South,10.4,-,N/A,,Scattered Clouds,190,2012-12-04 19:55:00
3:15 PM,73.4,51.8,47,30.19,5.0,SSW,12.7,19.6,N/A,,Haze,210,2012-12-04 20:15:00
3:35 PM,73.4,51.8,47,30.19,7.0,SSW,11.5,-,N/A,,Scattered Clouds,200,2012-12-04 20:35:00
3:55 PM,71.6,51.8,50,30.19,7.0,SSW,9.2,-,N/A,,Scattered Clouds,200,2012-12-04 20:55:00
4:15 PM,69.8,53.6,56,30.19,5.0,South,6.9,-,N/A,,Haze,190,2012-12-04 21:15:00
4:35 PM,68.0,53.6,60,30.19,7.0,South,5.8,-,N/A,,Clear,190,2012-12-04 21:35:00
4:55 PM,64.4,51.8,64,30.19,7.0,South,5.8,-,N/A,,Clear,180,2012-12-04 21:55:00
5:15 PM,64.4,51.8,64,30.20,7.0,South,5.8,-,N/A,,Clear,180,2012-12-04 22:15:00
5:55 PM,62.6,51.8,68,30.20,7.0,South,5.8,-,N/A,,Clear,170,2012-12-04 22:55:00
6:15 PM,62.6,51.8,68,30.20,7.0,South,4.6,-,N/A,,Clear,170,2012-12-04 23:15:00
6:35 PM,62.6,51.8,68,30.19,7.0,South,5.8,-,N/A,,Clear,170,2012-12-04 23:35:00
6:55 PM,60.8,51.8,72,30.19,7.0,South,5.8,-,N/A,,Clear,170,2012-12-04 23:55:00
7:15 PM,60.8,51.8,72,30.20,7.0,South,3.5,-,N/A,,Clear,180,2012-12-05 00:15:00
7:35 PM,57.2,51.8,82,30.20,7.0,South,4.6,-,N/A,,Clear,170,2012-12-05 00:35:00
7:55 PM,57.2,51.8,82,30.20,10.0,South,5.8,-,N/A,,Clear,190,2012-12-05 00:55:00
8:15 PM,57.2,51.8,82,30.19,7.0,South,4.6,-,N/A,,Clear,190,2012-12-05 01:15:00
8:35 PM,57.2,51.8,82,30.20,10.0,South,4.6,-,N/A,,Clear,180,2012-12-05 01:35:00
8:55 PM,57.2,51.8,82,30.19,10.0,South,4.6,-,N/A,,Clear,180,2012-12-05 01:55:00
9:15 PM,57.2,53.6,88,30.19,10.0,South,6.9,-,N/A,,Clear,180,2012-12-05 02:15:00
9:35 PM,57.2,53.6,88,30.18,10.0,South,8.1,-,N/A,,Clear,190,2012-12-05 02:35:00
9:55 PM,57.2,55.4,94,30.18,10.0,SSW,9.2,-,N/A,,Clear,200,2012-12-05 02:55:00
10:15 PM,57.2,53.6,88,30.18,10.0,SSW,8.1,-,N/A,,Clear,200,2012-12-05 03:15:00
10:35 PM,57.2,55.4,94,30.18,10.0,South,6.9,-,N/A,,Clear,190,2012-12-05 03:35:00
10:55 PM,57.2,55.4,94,30.18,10.0,South,6.9,-,N/A,,Clear,190,2012-12-05 03:55:00
11:15 PM,57.2,55.4,94,30.17,10.0,South,5.8,-,N/A,,Clear,190,2012-12-05 04:15:00
11:35 PM,57.2,55.4,94,30.17,10.0,South,5.8,-,N/A,,Clear,180,2012-12-05 04:35:00
11:55 PM,57.2,55.4,94,30.16,10.0,South,6.9,-,N/A,,Clear,190,2012-12-05 04:55:00